Regional Weather Roundup
Issued by NWS

Home | Current Version | Previous Version | Graphics & Text | Print | Product List | Glossary On
Versions: 1 2 3 4 5 6 7 8 9 10 11 12 13 14 15 16 17 18 19 20 21 22 23 24 25 26 27 28 29 30 31 32 33 34 35 36 37 38 39 40 41 42 43 44 45 46 47 48 49 50
000
ASUS44 KMEG 272010
RWRTN
TENNESSEE HOURLY STATE WEATHER ROUNDUP
NATIONAL WEATHER SERVICE MEMPHIS TN
300 PM CDT FRI MAY 27 2016

TNZ002-004-019-021-049-052-054-088>092-272100-
WEST TENNESSEE

CITY           SKY/WX    TMP DP  RH WIND       PRES   REMARKS
MEMPHIS INTL   CLOUDY    81  67  62 S13G21    29.90S
NWS MEMPHIS      N/A     83 N/A N/A MISG        N/A
JACKSON        CLOUDY    80  69  69 SE12G20   29.92F
DYERSBURG      CLOUDY    79  64  61 S9G20     29.90F
UNION CITY     SUNNY     81  70  69 S12       29.90F
PARIS          SUNNY     81  64  57 S14       29.94F
LEXINGTON      MOSUNNY   81  64  57 S10       29.95F
$$

TNZ008-025-027-028-033-062-065-066-272100-
NORTH MIDDLE TENNESSEE

CITY           SKY/WX    TMP DP  RH WIND       PRES   REMARKS
NASHVILLE      PTSUNNY   89  61  38 S13G21    29.98F
CLARKSVILLE    SUNNY     84  63  49 SW15      29.96F
SMYRNA         MOSUNNY   87  63  44 S13       29.98F
COOKEVILLE     MOSUNNY   88  66  48 S8        30.00F HX  90
CROSSVILLE     CLOUDY    80  62  54 VRB7      30.07F
$$

TNZ061-075-076-078-094-096-097-272100-
SOUTH MIDDLE TENNESSEE

CITY           SKY/WX    TMP DP  RH WIND       PRES   REMARKS
FAYETTEVILLE   MOSUNNY   86  63  45 S9G20     30.00F
TULLAHOMA      MOSUNNY   84  61  45 S9        30.02F
WINCHESTER     MOSUNNY   88  61  40 S10       30.01F
MCMINNVILLE    SUNNY     88  64  45 VRB7      30.01F
COLUMBIA       SUNNY     84  68  58 S12       29.97F
SHELBYVILLE    PTSUNNY   91  64  40 S13       30.00F HX  93
$$

TNZ017-018-042-046-047-272100-
NORTHEAST TENNESSEE

CITY           SKY/WX    TMP DP  RH WIND       PRES   REMARKS
TRI CITIES     MOSUNNY   86  61  42 W3        30.07F
$$

TNZ012-013-036-069-073-074-272100-
CENTRAL EAST TENNESSEE

CITY           SKY/WX    TMP DP  RH WIND       PRES   REMARKS
KNOXVILLE      CLOUDY    71  68  90 E7        30.08S
OAK RIDGE      CLOUDY    77  64  64 SE10      30.08S
GATLINBURG     SUNNY     75  64  69 W8        30.07F
$$

TNZ083-085-099-272100-
SOUTHEAST TENNESSEE

CITY           SKY/WX    TMP DP  RH WIND       PRES   REMARKS
CHATTANOOGA    PTSUNNY   89  62  40 S10       30.01F
$$

SKY/WX REPORTED AS FAIR MEANS FEW OR NO CLOUDS BELOW
12 THOUSAND FEET.




USA.gov is the U.S. government's official web portal to all federal, state and local government web resources and services.